owner,sensor,date,latitude,longitude,sea_surface_height_above_sea_level,qcFlag 
TCOON,ioos:station:TCOON:005:1,2014-10-01T00:18:00Z,27.6346,-97.2370,1.226,1111122 
TCOON,ioos:station:TCOON:005:1,2014-10-01T01:12:00Z,27.6346,-97.2370,1.23,1111122 
TCOON,ioos:station:TCOON:005:1,2014-10-01T02:18:00Z,27.6346,-97.2370,1.232,1111122 
TCOON,ioos:station:TCOON:005:1,2014-10-01T03:12:00Z,27.6346,-97.2370,1.241,1111122 
TCOON,ioos:station:TCOON:005:1,2014-10-01T04:12:00Z,27.6346,-97.2370,1.251,1111122 
TCOON,ioos:station:TCOON:005:1,2014-10-01T05:12:00Z,27.6346,-97.2370,1.265,1111122 
TCOON,ioos:station:TCOON:005:1,2014-10-01T07:00:00Z,27.6346,-97.2370,1.287,1111122 
TCOON,ioos:station:TCOON:005:1,2014-10-01T07:12:00Z,27.6346,-97.2370,1.289,1111122 
TCOON,ioos:station:TCOON:005:1,2014-10-01T08:12:00Z,27.6346,-97.2370,1.299,1111122 
TCOON,ioos:station:TCOON:005:1,2014-10-01T09:12:00Z,27.6346,-97.2370,1.311,1111122 
TCOON,ioos:station:TCOON:005:1,2014-10-01T10:12:00Z,27.6346,-97.2370,1.321,1111122 
TCOON,ioos:station:TCOON:005:1,2014-10-01T11:12:00Z,27.6346,-97.2370,1.325,1111122 
TCOON,ioos:station:TCOON:005:1,2014-10-01T12:18:00Z,27.6346,-97.2370,1.33,1111122 
TCOON,ioos:station:TCOON:005:1,2014-10-01T13:12:00Z,27.6346,-97.2370,1.327,1111122 
TCOON,ioos:station:TCOON:005:1,2014-10-01T14:12:00Z,27.6346,-97.2370,1.323,1111122 
TCOON,ioos:station:TCOON:005:1,2014-10-01T15:12:00Z,27.6346,-97.2370,1.312,1111122 
TCOON,ioos:station:TCOON:005:1,2014-10-01T16:18:00Z,27.6346,-97.2370,1.298,1111122 
TCOON,ioos:station:TCOON:005:1,2014-10-01T17:12:00Z,27.6346,-97.2370,1.282,1111122 
TCOON,ioos:station:TCOON:005:1,2014-10-01T18:12:00Z,27.6346,-97.2370,1.268,1111122 
TCOON,ioos:station:TCOON:005:1,2014-10-01T19:12:00Z,27.6346,-97.2370,1.252,1111122 
TCOON,ioos:station:TCOON:005:1,2014-10-01T20:18:00Z,27.6346,-97.2370,1.241,1111122 
TCOON,ioos:station:TCOON:005:1,2014-10-01T21:12:00Z,27.6346,-97.2370,1.232,1111122 
TCOON,ioos:station:TCOON:005:1,2014-10-01T22:18:00Z,27.6346,-97.2370,1.214,1111122 
TCOON,ioos:station:TCOON:005:1,2014-10-01T23:12:00Z,27.6346,-97.2370,1.203,1111122 
TCOON,ioos:station:TCOON:005:1,2014-10-02T00:12:00Z,27.6346,-97.2370,1.194,1111122 
TCOON,ioos:station:TCOON:005:1,2014-10-02T02:42:00Z,27.6346,-97.2370,1.199,1111122 
TCOON,ioos:station:TCOON:005:1,2014-10-02T03:12:00Z,27.6346,-97.2370,1.2,1111122 
TCOON,ioos:station:TCOON:005:1,2014-10-02T04:12:00Z,27.6346,-97.2370,1.204,1111122 
TCOON,ioos:station:TCOON:005:1,2014-10-02T05:12:00Z,27.6346,-97.2370,1.21,1111122 
TCOON,ioos:station:TCOON:005:1,2014-10-02T06:18:00Z,27.6346,-97.2370,1.224,1111122 
TCOON,ioos:station:TCOON:005:1,2014-10-02T07:12:00Z,27.6346,-97.2370,1.233,1111122 
TCOON,ioos:station:TCOON:005:1,2014-10-02T08:12:00Z,27.6346,-97.2370,1.242,1111122 
TCOON,ioos:station:TCOON:005:1,2014-10-02T09:12:00Z,27.6346,-97.2370,1.251,1111122 
TCOON,ioos:station:TCOON:005:1,2014-10-02T10:12:00Z,27.6346,-97.2370,1.259,1111122 
TCOON,ioos:station:TCOON:005:1,2014-10-02T11:12:00Z,27.6346,-97.2370,1.263,1111122 
TCOON,ioos:station:TCOON:005:1,2014-10-02T12:12:00Z,27.6346,-97.2370,1.272,1111122 
TCOON,ioos:station:TCOON:005:1,2014-10-02T13:12:00Z,27.6346,-97.2370,1.277,1111122 
TCOON,ioos:station:TCOON:005:1,2014-10-02T14:12:00Z,27.6346,-97.2370,1.258,1111122 
TCOON,ioos:station:TCOON:005:1,2014-10-02T15:18:00Z,27.6346,-97.2370,1.261,1111122 
TCOON,ioos:station:TCOON:005:1,2014-10-02T16:18:00Z,27.6346,-97.2370,1.244,1111122 
TCOON,ioos:station:TCOON:005:1,2014-10-02T17:12:00Z,27.6346,-97.2370,1.232,1111122 
TCOON,ioos:station:TCOON:005:1,2014-10-02T18:18:00Z,27.6346,-97.2370,1.223,1111122 
TCOON,ioos:station:TCOON:005:1,2014-10-02T19:12:00Z,27.6346,-97.2370,1.21,1111122 
TCOON,ioos:station:TCOON:005:1,2014-10-02T20:18:00Z,27.6346,-97.2370,1.197,1111122 
TCOON,ioos:station:TCOON:005:1,2014-10-02T21:12:00Z,27.6346,-97.2370,1.19,1111122 
TCOON,ioos:station:TCOON:005:1,2014-10-02T22:12:00Z,27.6346,-97.2370,1.172,1111122 
TCOON,ioos:station:TCOON:005:1,2014-10-02T23:12:00Z,27.6346,-97.2370,1.158,1111122 
TCOON,ioos:station:TCOON:005:1,2014-10-03T00:12:00Z,27.6346,-97.2370,1.149,1111122 
TCOON,ioos:station:TCOON:005:1,2014-10-03T01:12:00Z,27.6346,-97.2370,1.143,1111122 
TCOON,ioos:station:TCOON:005:1,2014-10-03T02:12:00Z,27.6346,-97.2370,1.141,1111122 
TCOON,ioos:station:TCOON:005:1,2014-10-03T03:12:00Z,27.6346,-97.2370,1.146,1111122 
TCOON,ioos:station:TCOON:005:1,2014-10-03T04:12:00Z,27.6346,-97.2370,1.149,1111122 
TCOON,ioos:station:TCOON:005:1,2014-10-03T05:12:00Z,27.6346,-97.2370,1.157,1111122 
TCOON,ioos:station:TCOON:005:1,2014-10-03T06:18:00Z,27.6346,-97.2370,1.163,1111122 
TCOON,ioos:station:TCOON:005:1,2014-10-03T07:12:00Z,27.6346,-97.2370,1.172,1111122 
TCOON,ioos:station:TCOON:005:1,2014-10-03T08:12:00Z,27.6346,-97.2370,1.18,1111122 
TCOON,ioos:station:TCOON:005:1,2014-10-03T09:12:00Z,27.6346,-97.2370,1.184,1111122 
TCOON,ioos:station:TCOON:005:1,2014-10-03T10:12:00Z,27.6346,-97.2370,1.188,1111122 
TCOON,ioos:station:TCOON:005:1,2014-10-03T11:12:00Z,27.6346,-97.2370,1.265,1111122 
TCOON,ioos:station:TCOON:005:1,2014-10-03T12:12:00Z,27.6346,-97.2370,1.241,1111122 
TCOON,ioos:station:TCOON:005:1,2014-10-03T13:12:00Z,27.6346,-97.2370,1.23,1111122 
TCOON,ioos:station:TCOON:005:1,2014-10-03T14:12:00Z,27.6346,-97.2370,1.222,1111122 
TCOON,ioos:station:TCOON:005:1,2014-10-03T15:12:00Z,27.6346,-97.2370,1.242,1111122 
TCOON,ioos:station:TCOON:005:1,2014-10-03T16:12:00Z,27.6346,-97.2370,1.24,1111122 
TCOON,ioos:station:TCOON:005:1,2014-10-03T17:12:00Z,27.6346,-97.2370,1.221,1111122 
TCOON,ioos:station:TCOON:005:1,2014-10-03T18:18:00Z,27.6346,-97.2370,1.206,1111122 
TCOON,ioos:station:TCOON:005:1,2014-10-03T19:12:00Z,27.6346,-97.2370,1.198,1111122 
TCOON,ioos:station:TCOON:005:1,2014-10-03T20:12:00Z,27.6346,-97.2370,1.182,1111122 
TCOON,ioos:station:TCOON:005:1,2014-10-03T21:12:00Z,27.6346,-97.2370,1.164,1111122 
TCOON,ioos:station:TCOON:005:1,2014-10-03T22:12:00Z,27.6346,-97.2370,1.147,1111122 
TCOON,ioos:station:TCOON:005:1,2014-10-03T23:12:00Z,27.6346,-97.2370,1.13,1111122 
TCOON,ioos:station:TCOON:005:1,2014-10-04T00:12:00Z,27.6346,-97.2370,1.108,1111122 
TCOON,ioos:station:TCOON:005:1,2014-10-04T01:12:00Z,27.6346,-97.2370,1.095,1111122 
TCOON,ioos:station:TCOON:005:1,2014-10-04T02:12:00Z,27.6346,-97.2370,1.088,1111122 
TCOON,ioos:station:TCOON:005:1,2014-10-04T03:12:00Z,27.6346,-97.2370,1.078,1111122 
TCOON,ioos:station:TCOON:005:1,2014-10-04T04:12:00Z,27.6346,-97.2370,1.08,1111122 
TCOON,ioos:station:TCOON:005:1,2014-10-04T05:30:00Z,27.6346,-97.2370,1.082,1111122 
TCOON,ioos:station:TCOON:005:1,2014-10-04T06:12:00Z,27.6346,-97.2370,1.086,1111122 
TCOON,ioos:station:TCOON:005:1,2014-10-04T07:12:00Z,27.6346,-97.2370,1.092,1111122 
TCOON,ioos:station:TCOON:005:1,2014-10-04T08:12:00Z,27.6346,-97.2370,1.106,1111122 
TCOON,ioos:station:TCOON:005:1,2014-10-04T09:12:00Z,27.6346,-97.2370,1.119,1111122 
TCOON,ioos:station:TCOON:005:1,2014-10-04T10:12:00Z,27.6346,-97.2370,1.134,1111122 
TCOON,ioos:station:TCOON:005:1,2014-10-04T11:12:00Z,27.6346,-97.2370,1.147,1111122 
TCOON,ioos:station:TCOON:005:1,2014-10-04T12:12:00Z,27.6346,-97.2370,1.161,1111122 
TCOON,ioos:station:TCOON:005:1,2014-10-04T13:12:00Z,27.6346,-97.2370,1.169,1111122 
TCOON,ioos:station:TCOON:005:1,2014-10-04T14:12:00Z,27.6346,-97.2370,1.177,1111122 
TCOON,ioos:station:TCOON:005:1,2014-10-04T15:12:00Z,27.6346,-97.2370,1.184,1111122 
TCOON,ioos:station:TCOON:005:1,2014-10-04T16:12:00Z,27.6346,-97.2370,1.201,1111122 
TCOON,ioos:station:TCOON:005:1,2014-10-04T17:12:00Z,27.6346,-97.2370,1.207,1111122 
TCOON,ioos:station:TCOON:005:1,2014-10-04T18:12:00Z,27.6346,-97.2370,1.204,1111122 
TCOON,ioos:station:TCOON:005:1,2014-10-04T19:12:00Z,27.6346,-97.2370,1.208,1111122 
TCOON,ioos:station:TCOON:005:1,2014-10-04T20:12:00Z,27.6346,-97.2370,1.207,1111122 
TCOON,ioos:station:TCOON:005:1,2014-10-04T21:12:00Z,27.6346,-97.2370,1.201,1111122 
TCOON,ioos:station:TCOON:005:1,2014-10-04T22:12:00Z,27.6346,-97.2370,1.196,1111122 
TCOON,ioos:station:TCOON:005:1,2014-10-04T23:12:00Z,27.6346,-97.2370,1.186,1111122 
TCOON,ioos:station:TCOON:005:1,2014-10-05T00:12:00Z,27.6346,-97.2370,1.171,1111122 
TCOON,ioos:station:TCOON:005:1,2014-10-05T01:12:00Z,27.6346,-97.2370,1.156,1111122 
TCOON,ioos:station:TCOON:005:1,2014-10-05T02:12:00Z,27.6346,-97.2370,1.144,1111122 
TCOON,ioos:station:TCOON:005:1,2014-10-05T03:12:00Z,27.6346,-97.2370,1.141,1111122 
TCOON,ioos:station:TCOON:005:1,2014-10-05T04:18:00Z,27.6346,-97.2370,1.144,1111122 
TCOON,ioos:station:TCOON:005:1,2014-10-05T05:12:00Z,27.6346,-97.2370,1.143,1111122 
TCOON,ioos:station:TCOON:005:1,2014-10-05T06:54:00Z,27.6346,-97.2370,1.155,1111122 
TCOON,ioos:station:TCOON:005:1,2014-10-05T07:12:00Z,27.6346,-97.2370,1.157,1111122 
TCOON,ioos:station:TCOON:005:1,2014-10-05T08:12:00Z,27.6346,-97.2370,1.167,1111122 
TCOON,ioos:station:TCOON:005:1,2014-10-05T09:12:00Z,27.6346,-97.2370,1.179,1111122 
TCOON,ioos:station:TCOON:005:1,2014-10-05T10:12:00Z,27.6346,-97.2370,1.192,1111122 
TCOON,ioos:station:TCOON:005:1,2014-10-05T11:12:00Z,27.6346,-97.2370,1.207,1111122 
TCOON,ioos:station:TCOON:005:1,2014-10-05T12:12:00Z,27.6346,-97.2370,1.22,1111122 
TCOON,ioos:station:TCOON:005:1,2014-10-05T13:12:00Z,27.6346,-97.2370,1.232,1111122 
TCOON,ioos:station:TCOON:005:1,2014-10-05T14:12:00Z,27.6346,-97.2370,1.235,1111122 
TCOON,ioos:station:TCOON:005:1,2014-10-05T15:12:00Z,27.6346,-97.2370,1.238,1111122 
TCOON,ioos:station:TCOON:005:1,2014-10-05T16:12:00Z,27.6346,-97.2370,1.24,1111122 
TCOON,ioos:station:TCOON:005:1,2014-10-05T17:12:00Z,27.6346,-97.2370,1.233,1111122 
TCOON,ioos:station:TCOON:005:1,2014-10-05T18:12:00Z,27.6346,-97.2370,1.23,1111122 
TCOON,ioos:station:TCOON:005:1,2014-10-05T19:12:00Z,27.6346,-97.2370,1.227,1111122 
TCOON,ioos:station:TCOON:005:1,2014-10-05T20:18:00Z,27.6346,-97.2370,1.23,1111122 
TCOON,ioos:station:TCOON:005:1,2014-10-05T21:12:00Z,27.6346,-97.2370,1.223,1111122 
TCOON,ioos:station:TCOON:005:1,2014-10-05T22:12:00Z,27.6346,-97.2370,1.205,1111122 
TCOON,ioos:station:TCOON:005:1,2014-10-05T23:12:00Z,27.6346,-97.2370,1.199,1111122 
TCOON,ioos:station:TCOON:005:1,2014-10-06T00:12:00Z,27.6346,-97.2370,1.188,1111122 
TCOON,ioos:station:TCOON:005:1,2014-10-06T01:12:00Z,27.6346,-97.2370,1.177,1111122 
TCOON,ioos:station:TCOON:005:1,2014-10-06T02:18:00Z,27.6346,-97.2370,1.166,1111122 
TCOON,ioos:station:TCOON:005:1,2014-10-06T03:12:00Z,27.6346,-97.2370,1.157,1111122 
TCOON,ioos:station:TCOON:005:1,2014-10-06T04:18:00Z,27.6346,-97.2370,1.153,1111122 
TCOON,ioos:station:TCOON:005:1,2014-10-06T05:12:00Z,27.6346,-97.2370,1.153,1111122 
TCOON,ioos:station:TCOON:005:1,2014-10-06T06:12:00Z,27.6346,-97.2370,1.152,1111122 
TCOON,ioos:station:TCOON:005:1,2014-10-06T07:12:00Z,27.6346,-97.2370,1.158,1111122 
TCOON,ioos:station:TCOON:005:1,2014-10-06T08:12:00Z,27.6346,-97.2370,1.168,1111122 
TCOON,ioos:station:TCOON:005:1,2014-10-06T09:12:00Z,27.6346,-97.2370,1.179,1111122 
TCOON,ioos:station:TCOON:005:1,2014-10-06T10:12:00Z,27.6346,-97.2370,1.194,1111122 
TCOON,ioos:station:TCOON:005:1,2014-10-06T11:12:00Z,27.6346,-97.2370,1.206,1111122 
TCOON,ioos:station:TCOON:005:1,2014-10-06T12:12:00Z,27.6346,-97.2370,1.216,1111122 
TCOON,ioos:station:TCOON:005:1,2014-10-06T13:12:00Z,27.6346,-97.2370,1.226,1111122 
TCOON,ioos:station:TCOON:005:1,2014-10-06T14:12:00Z,27.6346,-97.2370,1.229,1111122 
TCOON,ioos:station:TCOON:005:1,2014-10-06T15:12:00Z,27.6346,-97.2370,1.227,1111122 
TCOON,ioos:station:TCOON:005:1,2014-10-06T16:12:00Z,27.6346,-97.2370,1.228,1111122 
TCOON,ioos:station:TCOON:005:1,2014-10-06T17:12:00Z,27.6346,-97.2370,1.224,1111122 
TCOON,ioos:station:TCOON:005:1,2014-10-06T18:18:00Z,27.6346,-97.2370,1.218,1111122 
TCOON,ioos:station:TCOON:005:1,2014-10-06T19:12:00Z,27.6346,-97.2370,1.22,1111122 
TCOON,ioos:station:TCOON:005:1,2014-10-06T20:12:00Z,27.6346,-97.2370,1.226,1111122 
TCOON,ioos:station:TCOON:005:1,2014-10-06T21:12:00Z,27.6346,-97.2370,1.24,1111122 
TCOON,ioos:station:TCOON:005:1,2014-10-06T22:18:00Z,27.6346,-97.2370,1.239,1111122 
TCOON,ioos:station:TCOON:005:1,2014-10-06T23:18:00Z,27.6346,-97.2370,1.242,1111122 
TCOON,ioos:station:TCOON:005:1,2014-10-07T00:12:00Z,27.6346,-97.2370,1.226,1111122 
TCOON,ioos:station:TCOON:005:1,2014-10-07T01:12:00Z,27.6346,-97.2370,1.228,1111122 
TCOON,ioos:station:TCOON:005:1,2014-10-07T02:12:00Z,27.6346,-97.2370,1.225,1111122 
TCOON,ioos:station:TCOON:005:1,2014-10-07T03:12:00Z,27.6346,-97.2370,1.213,1111122 
TCOON,ioos:station:TCOON:005:1,2014-10-07T04:18:00Z,27.6346,-97.2370,1.205,1111122 
TCOON,ioos:station:TCOON:005:1,2014-10-07T05:12:00Z,27.6346,-97.2370,1.203,1111122 
TCOON,ioos:station:TCOON:005:1,2014-10-07T06:18:00Z,27.6346,-97.2370,1.201,1111122 
TCOON,ioos:station:TCOON:005:1,2014-10-07T07:12:00Z,27.6346,-97.2370,1.2,1111122 
TCOON,ioos:station:TCOON:005:1,2014-10-07T08:12:00Z,27.6346,-97.2370,1.202,1111122 
TCOON,ioos:station:TCOON:005:1,2014-10-07T09:12:00Z,27.6346,-97.2370,1.206,1111122 
TCOON,ioos:station:TCOON:005:1,2014-10-07T10:12:00Z,27.6346,-97.2370,1.209,1111122 
TCOON,ioos:station:TCOON:005:1,2014-10-07T11:12:00Z,27.6346,-97.2370,1.21,1111122 
TCOON,ioos:station:TCOON:005:1,2014-10-07T12:18:00Z,27.6346,-97.2370,1.211,1111122 
TCOON,ioos:station:TCOON:005:1,2014-10-07T13:12:00Z,27.6346,-97.2370,1.207,1111122 
TCOON,ioos:station:TCOON:005:1,2014-10-07T14:12:00Z,27.6346,-97.2370,1.198,1111122 
TCOON,ioos:station:TCOON:005:1,2014-10-07T15:18:00Z,27.6346,-97.2370,1.184,1111122 
TCOON,ioos:station:TCOON:005:1,2014-10-07T16:18:00Z,27.6346,-97.2370,1.169,1111122 
TCOON,ioos:station:TCOON:005:1,2014-10-07T17:12:00Z,27.6346,-97.2370,1.161,1111122 
TCOON,ioos:station:TCOON:005:1,2014-10-07T18:18:00Z,27.6346,-97.2370,1.161,1111122 
TCOON,ioos:station:TCOON:005:1,2014-10-07T19:12:00Z,27.6346,-97.2370,1.159,1111122 
TCOON,ioos:station:TCOON:005:1,2014-10-07T20:12:00Z,27.6346,-97.2370,1.165,1111122 
TCOON,ioos:station:TCOON:005:1,2014-10-07T21:12:00Z,27.6346,-97.2370,1.168,1111122 
TCOON,ioos:station:TCOON:005:1,2014-10-07T22:18:00Z,27.6346,-97.2370,1.167,1111122 
TCOON,ioos:station:TCOON:005:1,2014-10-07T23:12:00Z,27.6346,-97.2370,1.172,1111122 
TCOON,ioos:station:TCOON:005:1,2014-10-08T00:12:00Z,27.6346,-97.2370,1.169,1111122 
TCOON,ioos:station:TCOON:005:1,2014-10-08T01:18:00Z,27.6346,-97.2370,1.164,1111122 
TCOON,ioos:station:TCOON:005:1,2014-10-08T02:12:00Z,27.6346,-97.2370,1.156,1111122 
TCOON,ioos:station:TCOON:005:1,2014-10-08T03:12:00Z,27.6346,-97.2370,1.146,1111122 
TCOON,ioos:station:TCOON:005:1,2014-10-08T04:12:00Z,27.6346,-97.2370,1.134,1111122 
TCOON,ioos:station:TCOON:005:1,2014-10-08T05:12:00Z,27.6346,-97.2370,1.123,1111122 
TCOON,ioos:station:TCOON:005:1,2014-10-08T06:54:00Z,27.6346,-97.2370,1.12,1111122 
TCOON,ioos:station:TCOON:005:1,2014-10-08T07:12:00Z,27.6346,-97.2370,1.122,1111122 
TCOON,ioos:station:TCOON:005:1,2014-10-08T08:12:00Z,27.6346,-97.2370,1.12,1111122 
TCOON,ioos:station:TCOON:005:1,2014-10-08T09:12:00Z,27.6346,-97.2370,1.121,1111122 
TCOON,ioos:station:TCOON:005:1,2014-10-08T10:12:00Z,27.6346,-97.2370,1.112,1111122 
TCOON,ioos:station:TCOON:005:1,2014-10-08T11:12:00Z,27.6346,-97.2370,1.104,1111122 
TCOON,ioos:station:TCOON:005:1,2014-10-08T12:12:00Z,27.6346,-97.2370,1.101,1111122 
TCOON,ioos:station:TCOON:005:1,2014-10-08T13:12:00Z,27.6346,-97.2370,1.097,1111122 
TCOON,ioos:station:TCOON:005:1,2014-10-08T14:12:00Z,27.6346,-97.2370,1.088,1111122 
TCOON,ioos:station:TCOON:005:1,2014-10-08T15:12:00Z,27.6346,-97.2370,1.077,1111122 
TCOON,ioos:station:TCOON:005:1,2014-10-08T16:12:00Z,27.6346,-97.2370,1.063,1111122 
TCOON,ioos:station:TCOON:005:1,2014-10-08T17:12:00Z,27.6346,-97.2370,1.055,1111122 
TCOON,ioos:station:TCOON:005:1,2014-10-08T18:12:00Z,27.6346,-97.2370,1.055,1111122 
TCOON,ioos:station:TCOON:005:1,2014-10-08T19:12:00Z,27.6346,-97.2370,1.061,1111122 
TCOON,ioos:station:TCOON:005:1,2014-10-08T20:12:00Z,27.6346,-97.2370,1.069,1111122 
TCOON,ioos:station:TCOON:005:1,2014-10-08T21:12:00Z,27.6346,-97.2370,1.074,1111122 
TCOON,ioos:station:TCOON:005:1,2014-10-08T22:18:00Z,27.6346,-97.2370,1.08,1111122 
TCOON,ioos:station:TCOON:005:1,2014-10-08T23:12:00Z,27.6346,-97.2370,1.086,1111122 
TCOON,ioos:station:TCOON:005:1,2014-10-09T00:18:00Z,27.6346,-97.2370,1.095,1111122 
TCOON,ioos:station:TCOON:005:1,2014-10-09T01:18:00Z,27.6346,-97.2370,1.106,1111122 
TCOON,ioos:station:TCOON:005:1,2014-10-09T02:12:00Z,27.6346,-97.2370,1.113,1111122 
TCOON,ioos:station:TCOON:005:1,2014-10-09T03:12:00Z,27.6346,-97.2370,1.119,1111122 
TCOON,ioos:station:TCOON:005:1,2014-10-09T04:12:00Z,27.6346,-97.2370,1.123,1111122 
TCOON,ioos:station:TCOON:005:1,2014-10-09T05:12:00Z,27.6346,-97.2370,1.117,1111122 
TCOON,ioos:station:TCOON:005:1,2014-10-09T06:12:00Z,27.6346,-97.2370,1.114,1111122 
TCOON,ioos:station:TCOON:005:1,2014-10-09T07:12:00Z,27.6346,-97.2370,1.115,1111122 
TCOON,ioos:station:TCOON:005:1,2014-10-09T08:12:00Z,27.6346,-97.2370,1.119,1111122 
TCOON,ioos:station:TCOON:005:1,2014-10-09T09:12:00Z,27.6346,-97.2370,1.119,1111122 
TCOON,ioos:station:TCOON:005:1,2014-10-09T10:12:00Z,27.6346,-97.2370,1.112,1111122 
TCOON,ioos:station:TCOON:005:1,2014-10-09T11:12:00Z,27.6346,-97.2370,1.104,1111122 
TCOON,ioos:station:TCOON:005:1,2014-10-09T12:12:00Z,27.6346,-97.2370,1.098,1111122 
TCOON,ioos:station:TCOON:005:1,2014-10-09T13:18:00Z,27.6346,-97.2370,1.092,1111122 
TCOON,ioos:station:TCOON:005:1,2014-10-09T14:12:00Z,27.6346,-97.2370,1.079,1111122 
TCOON,ioos:station:TCOON:005:1,2014-10-09T15:18:00Z,27.6346,-97.2370,1.066,1111122 
TCOON,ioos:station:TCOON:005:1,2014-10-09T16:24:00Z,27.6346,-97.2370,1.052,1111122 
TCOON,ioos:station:TCOON:005:1,2014-10-09T17:12:00Z,27.6346,-97.2370,1.042,1111122 
TCOON,ioos:station:TCOON:005:1,2014-10-09T18:18:00Z,27.6346,-97.2370,1.038,1111122 
TCOON,ioos:station:TCOON:005:1,2014-10-09T19:12:00Z,27.6346,-97.2370,1.045,1111122 
TCOON,ioos:station:TCOON:005:1,2014-10-09T20:12:00Z,27.6346,-97.2370,1.056,1111122 
TCOON,ioos:station:TCOON:005:1,2014-10-09T21:12:00Z,27.6346,-97.2370,1.063,1111122 
TCOON,ioos:station:TCOON:005:1,2014-10-09T22:48:00Z,27.6346,-97.2370,1.071,1111122 
TCOON,ioos:station:TCOON:005:1,2014-10-09T23:12:00Z,27.6346,-97.2370,1.076,1111122 
TCOON,ioos:station:TCOON:005:1,2014-10-10T00:12:00Z,27.6346,-97.2370,1.084,1111122 
TCOON,ioos:station:TCOON:005:1,2014-10-10T02:48:00Z,27.6346,-97.2370,1.118,1111122 
TCOON,ioos:station:TCOON:005:1,2014-10-10T03:12:00Z,27.6346,-97.2370,1.123,1111122 
TCOON,ioos:station:TCOON:005:1,2014-10-10T04:18:00Z,27.6346,-97.2370,1.135,1111122 
TCOON,ioos:station:TCOON:005:1,2014-10-10T05:12:00Z,27.6346,-97.2370,1.139,1111122 
TCOON,ioos:station:TCOON:005:1,2014-10-10T06:18:00Z,27.6346,-97.2370,1.145,1111122 
TCOON,ioos:station:TCOON:005:1,2014-10-10T07:12:00Z,27.6346,-97.2370,1.149,1111122 
TCOON,ioos:station:TCOON:005:1,2014-10-10T08:12:00Z,27.6346,-97.2370,1.151,1111122 
TCOON,ioos:station:TCOON:005:1,2014-10-10T09:12:00Z,27.6346,-97.2370,1.151,1111122 
TCOON,ioos:station:TCOON:005:1,2014-10-10T10:12:00Z,27.6346,-97.2370,1.153,1111122 
TCOON,ioos:station:TCOON:005:1,2014-10-10T11:12:00Z,27.6346,-97.2370,1.147,1111122 
TCOON,ioos:station:TCOON:005:1,2014-10-10T12:12:00Z,27.6346,-97.2370,1.141,1111122 
TCOON,ioos:station:TCOON:005:1,2014-10-10T13:12:00Z,27.6346,-97.2370,1.132,1111122 
TCOON,ioos:station:TCOON:005:1,2014-10-10T14:18:00Z,27.6346,-97.2370,1.112,1111122 
TCOON,ioos:station:TCOON:005:1,2014-10-10T15:12:00Z,27.6346,-97.2370,1.1,1111122 
TCOON,ioos:station:TCOON:005:1,2014-10-10T16:24:00Z,27.6346,-97.2370,1.078,1111122 
TCOON,ioos:station:TCOON:005:1,2014-10-10T17:12:00Z,27.6346,-97.2370,1.061,1111122 
TCOON,ioos:station:TCOON:005:1,2014-10-10T18:12:00Z,27.6346,-97.2370,1.048,1111122 
TCOON,ioos:station:TCOON:005:1,2014-10-10T19:12:00Z,27.6346,-97.2370,1.045,1111122 
TCOON,ioos:station:TCOON:005:1,2014-10-10T20:12:00Z,27.6346,-97.2370,1.056,1111122 
TCOON,ioos:station:TCOON:005:1,2014-10-10T21:12:00Z,27.6346,-97.2370,1.061,1111122 
TCOON,ioos:station:TCOON:005:1,2014-10-10T22:12:00Z,27.6346,-97.2370,1.059,1111122 
TCOON,ioos:station:TCOON:005:1,2014-10-10T23:12:00Z,27.6346,-97.2370,1.059,1111122 
TCOON,ioos:station:TCOON:005:1,2014-10-11T00:18:00Z,27.6346,-97.2370,1.067,1111122 
TCOON,ioos:station:TCOON:005:1,2014-10-11T01:30:00Z,27.6346,-97.2370,1.073,1111122 
TCOON,ioos:station:TCOON:005:1,2014-10-11T02:18:00Z,27.6346,-97.2370,1.081,1111122 
TCOON,ioos:station:TCOON:005:1,2014-10-11T03:12:00Z,27.6346,-97.2370,1.095,1111122 
TCOON,ioos:station:TCOON:005:1,2014-10-11T04:18:00Z,27.6346,-97.2370,1.108,1111122 
TCOON,ioos:station:TCOON:005:1,2014-10-11T05:12:00Z,27.6346,-97.2370,1.115,1111122 
TCOON,ioos:station:TCOON:005:1,2014-10-11T06:24:00Z,27.6346,-97.2370,1.122,1111122 
TCOON,ioos:station:TCOON:005:1,2014-10-11T07:42:00Z,27.6346,-97.2370,1.134,1111122 
TCOON,ioos:station:TCOON:005:1,2014-10-11T08:12:00Z,27.6346,-97.2370,1.14,1111122 
TCOON,ioos:station:TCOON:005:1,2014-10-11T09:12:00Z,27.6346,-97.2370,1.143,1111122 
TCOON,ioos:station:TCOON:005:1,2014-10-11T10:18:00Z,27.6346,-97.2370,1.144,1111122 
TCOON,ioos:station:TCOON:005:1,2014-10-11T11:12:00Z,27.6346,-97.2370,1.144,1111122 
TCOON,ioos:station:TCOON:005:1,2014-10-11T12:12:00Z,27.6346,-97.2370,1.14,1111122 
TCOON,ioos:station:TCOON:005:1,2014-10-11T13:12:00Z,27.6346,-97.2370,1.145,1111122 
TCOON,ioos:station:TCOON:005:1,2014-10-11T14:12:00Z,27.6346,-97.2370,1.134,1111122 
TCOON,ioos:station:TCOON:005:1,2014-10-11T15:12:00Z,27.6346,-97.2370,1.122,1111122 
TCOON,ioos:station:TCOON:005:1,2014-10-11T16:18:00Z,27.6346,-97.2370,1.1,1111122 
TCOON,ioos:station:TCOON:005:1,2014-10-11T17:12:00Z,27.6346,-97.2370,1.094,1111122 
TCOON,ioos:station:TCOON:005:1,2014-10-11T18:12:00Z,27.6346,-97.2370,1.07,1111122 
TCOON,ioos:station:TCOON:005:1,2014-10-11T19:12:00Z,27.6346,-97.2370,1.055,1111122 
TCOON,ioos:station:TCOON:005:1,2014-10-11T20:12:00Z,27.6346,-97.2370,1.052,1111122 
TCOON,ioos:station:TCOON:005:1,2014-10-11T21:12:00Z,27.6346,-97.2370,1.057,1111122 
TCOON,ioos:station:TCOON:005:1,2014-10-11T22:12:00Z,27.6346,-97.2370,1.062,1111122 
TCOON,ioos:station:TCOON:005:1,2014-10-11T23:12:00Z,27.6346,-97.2370,1.06,1111122 
TCOON,ioos:station:TCOON:005:1,2014-10-12T00:12:00Z,27.6346,-97.2370,1.06,1111122 
TCOON,ioos:station:TCOON:005:1,2014-10-12T01:18:00Z,27.6346,-97.2370,1.071,1111122 
TCOON,ioos:station:TCOON:005:1,2014-10-12T02:12:00Z,27.6346,-97.2370,1.089,1111122 
TCOON,ioos:station:TCOON:005:1,2014-10-12T03:12:00Z,27.6346,-97.2370,1.115,1111122 
TCOON,ioos:station:TCOON:005:1,2014-10-12T04:24:00Z,27.6346,-97.2370,1.132,1111122 
TCOON,ioos:station:TCOON:005:1,2014-10-12T05:12:00Z,27.6346,-97.2370,1.176,1111122 
TCOON,ioos:station:TCOON:005:1,2014-10-12T07:00:00Z,27.6346,-97.2370,1.18,1111122 
TCOON,ioos:station:TCOON:005:1,2014-10-12T07:12:00Z,27.6346,-97.2370,1.178,1111122 
TCOON,ioos:station:TCOON:005:1,2014-10-12T08:12:00Z,27.6346,-97.2370,1.178,1111122 
TCOON,ioos:station:TCOON:005:1,2014-10-12T09:18:00Z,27.6346,-97.2370,1.181,1111122 
TCOON,ioos:station:TCOON:005:1,2014-10-12T10:12:00Z,27.6346,-97.2370,1.203,1111122 
TCOON,ioos:station:TCOON:005:1,2014-10-12T11:12:00Z,27.6346,-97.2370,1.183,1111122 
TCOON,ioos:station:TCOON:005:1,2014-10-12T12:12:00Z,27.6346,-97.2370,1.173,1111122 
TCOON,ioos:station:TCOON:005:1,2014-10-12T13:12:00Z,27.6346,-97.2370,1.168,1111122 
TCOON,ioos:station:TCOON:005:1,2014-10-12T14:12:00Z,27.6346,-97.2370,1.153,1111122 
TCOON,ioos:station:TCOON:005:1,2014-10-12T15:12:00Z,27.6346,-97.2370,1.144,1111122 
TCOON,ioos:station:TCOON:005:1,2014-10-12T16:12:00Z,27.6346,-97.2370,1.122,1111122 
TCOON,ioos:station:TCOON:005:1,2014-10-12T17:12:00Z,27.6346,-97.2370,1.094,1111122 
TCOON,ioos:station:TCOON:005:1,2014-10-12T18:12:00Z,27.6346,-97.2370,1.073,1111122 
TCOON,ioos:station:TCOON:005:1,2014-10-12T19:12:00Z,27.6346,-97.2370,1.074,1111122 
TCOON,ioos:station:TCOON:005:1,2014-10-12T20:18:00Z,27.6346,-97.2370,1.059,1111122 
TCOON,ioos:station:TCOON:005:1,2014-10-12T21:12:00Z,27.6346,-97.2370,1.052,1111122 
TCOON,ioos:station:TCOON:005:1,2014-10-12T22:12:00Z,27.6346,-97.2370,1.048,1111122 